This demonstration page uses our WeatherBlox Daily Observations layout. Learn more.

Hourly Observations for July 22, 2017

Temp ( °F °C ) Dew Point ( °F °C ) Humidity (%) Winds ( mph kmh ) Pressure ( in mb ) Visibility ( mi km ) Precip ( " mm )
12:53 am 00:53 Clear 76 24.4 74 23.3 94 94 ENE 3 6 29.94 1014 10 16.0934 0 0
1:53 am 01:53 Clear 77 25 74 23.3 90 90 Calm 29.92 1013 10 16.0934 0 0
2:53 am 02:53 Clear 75 23.9 72 22.2 90 90 E 3 6 29.91 1013 10 16.0934 0 0
3:53 am 03:53 Mostly Cloudy 76 24.4 73 22.8 91 91 SE 3 6 29.88 1012 10 16.0934 0 0
4:53 am 04:53 Mostly Clear 75 23.9 73 22.8 94 94 Calm 29.89 1012 9 14.48406 0 0
5:14 am 05:14 Mostly Clear with Thunderstorms 74 23.3 74 23.3 100 100 Calm 29.91 1013 8 12.87472 0 0
5:29 am 05:29 Mostly Clear with Nearby Thunderstorms 75 23.9 74 23.3 96 96 Calm 29.88 1012 7 11.26538 0 0
5:39 am 05:39 Clear 74 23.3 74 23.3 100 100 Calm 29.88 1012 8 12.87472 0 0
5:53 am 05:53 Partly Cloudy 75 23.9 74 23.3 96 96 Calm 29.88 1012 8 12.87472 0 0
6:36 am 06:36 Cloudy with Nearby Thunderstorms 78 25.6 74 23.3 87 87 WNW 8 13 29.88 1012 8 12.87472 0 0
6:51 am 06:51 Mostly Cloudy 77 25 72 22 83 83 NW 12 19 29.94 1014 10 16.0934 0 0
6:53 am 06:53 Mostly Cloudy 77 25 72 22.2 85 85 NW 8 13 29.91 1013 10 16.0934 0 0
7:53 am 07:53 Sunny 75 23.9 73 22.8 94 94 Calm 29.9 1012 10 16.0934 0 0
8:53 am 08:53 Sunny 78 25.6 74 23.3 87 87 Calm 29.89 1012 10 16.0934 0 0
9:53 am 09:53 Partly Cloudy 81 27.2 74 23.3 79 79 SSW 5 7 29.9 1012 10 16.0934 0 0
10:53 am 10:53 Partly Cloudy 84 28.9 76 24.4 77 77 VRB 6 9 29.9 1012 8 12.87472 0 0
11:53 am 11:53 Hazy 86 30 79 26.1 80 80 WSW 12 19 29.88 1012 6 9.65604 0 0
12:53 pm 12:53 Partly Cloudy 88 31.1 78 25.6 73 73 SW 8 13 29.85 1011 7 11.26538 0 0
1:53 pm 13:53 Sunny 89 31.7 78 25.6 70 70 SSW 12 19 29.79 1009 8 12.87472 0 0
2:53 pm 14:53 Sunny 89 31.7 77 25 68 68 SW 6 9 29.79 1009 8 12.87472 0 0
3:53 pm 15:53 Sunny 91 32.8 78 25.6 66 66 WSW 12 19 29.8 1009 8 12.87472 0 0
4:53 pm 16:53 Sunny 91 32.8 77 25 64 64 W 16 26 29.79 1009 9 14.48406 0 0
5:53 pm 17:53 Mostly Cloudy 90 32.2 75 23.9 62 62 W 15 24 29.79 1009 9 14.48406 0 0
6:53 pm 18:53 Sunny 88 31.1 74 23.3 63 63 W 8 13 29.8 1009 9 14.48406 0 0
7:53 pm 19:53 Mostly Cloudy 87 30.6 74 23.3 65 65 WNW 8 13 29.8 1009 10 16.0934 0 0
8:53 pm 20:53 Mostly Cloudy 84 28.9 75 23.9 74 74 NNW 3 6 29.81 1010 10 16.0934 0 0
9:53 pm 21:53 Mostly Cloudy 80 26.7 76 24.4 87 87 Calm 29.82 1010 10 16.0934 0 0
10:53 pm 22:53 Mostly Cloudy 79 26.1 76 24.4 90 90 WSW 3 6 29.83 1010 10 16.0934 0 0
11:09 pm 23:09 Cloudy with Thunderstorms 81 27.2 75 23.9 82 82 Calm 29.8 1009 10 16.0934 0 0
11:24 pm 23:24 Mostly Cloudy with Nearby Thunderstorms 79 26.1 75 23.9 88 88 Calm 29.8 1009 10 16.0934 0 0
11:38 pm 23:38 Mostly Cloudy with Heavy Thunderstorms 80 26.7 74 23.3 82 82 W 16 26 29.83 1010 2 3.21868 0.13 3.302
11:45 pm 23:45 Mostly Cloudy with Heavy Thunderstorms 76 24.4 75 23.9 97 97 VRB 6 9 29.83 1010 1 1.60934 0.23 5.842
11:50 pm 23:50 Cloudy with Thunderstorms 75 24 75 24 100 100 VRB 3 6 29.83 1010 2.5 4.02335 0.24 6.096
11:53 pm 23:53 Cloudy with Light Thunderstorms 76 24.4 75 23.9 97 97 Calm 29.83 1010 5 8.0467 0.24 6.096

Powered by AerisWeather